Regional Weather Roundup
Issued by NWS Little Rock, AR

Home | Current Version | Previous Version | Graphics & Text | Print | Product List | Glossary On
Versions: 1 2 3 4 5 6 7 8 9 10 11 12 13 14 15 16 17 18 19 20 21 22 23 24 25 26 27 28 29 30 31 32 33 34 35 36 37 38 39 40 41 42 43 44 45 46 47 48 49 50
000
ASUS44 KLZK 291905
RWRLZK

WEATHER ROUNDUP FOR ARKANSAS
NATIONAL WEATHER SERVICE LITTLE ROCK AR
200 PM CDT FRI AUG 29 2014

NOTE: "FAIR" INDICATES FEW OR NO CLOUDS BELOW 12,000 FEET WITH NO
SIGNIFICANT WEATHER AND/OR OBSTRUCTIONS TO VISIBILITY.

ARZ001-003-010-029-292000-
NORTHWEST ARKANSAS

CITY           SKY/WX    TMP DP  RH WIND       PRES   REMARKS
FAYETTEVILLE   MOSUNNY   85  62  46 SW15      29.93F HX  85
FORT SMITH     TSTM      72  69  90 S13       29.94R
HARRISON       MOSUNNY   81  69  67 S6        29.94F
BENTONVILLE    MOSUNNY   86  66  51 SW9       29.94F HX  88
ROGERS         MOSUNNY   87  64  46 SW12G20   29.94F HX  88
SILOAM SPGS    PTSUNNY   84  64  51 SW7G16    29.95S HX  86
HIGHFILL       MOSUNNY   87  66  49 SW10      29.93F HX  89
SPRINGDALE     PTSUNNY   86  64  48 SW12G23   29.95F HX  87
$$

ARZ004-005-016-292000-
NORTH CENTRAL ARKANSAS

CITY           SKY/WX    TMP DP  RH WIND       PRES   REMARKS
BATESVILLE     MOSUNNY   90  66  45 S12       29.92F HX  92
FLIPPIN        MOSUNNY   88  66  48 S8        29.91F HX  90
MTN HOME       MOSUNNY   88  68  51 S10G18    29.91F HX  91
$$

ARZ040-041-292000-
WEST CENTRAL ARKANSAS

CITY           SKY/WX    TMP DP  RH WIND       PRES   REMARKS
MENA           CLOUDY    86  72  62 CALM      29.96S HX  92
MOUNT IDA      PTSUNNY   86  70  58 VRB7      29.92F HX  90
$$

ARZ009-017-025-026-028-292000-
NORTHEAST ARKANSAS

CITY           SKY/WX    TMP DP  RH WIND       PRES   REMARKS
CORNING        TSTM      90  70  51 S13G20    29.93F HX  95
JONESBORO      MOSUNNY   90  69  50 SW16G22   29.94F HX  94
NEWPORT        MOSUNNY   91  71  51 S12       29.94F HX  97
WALNUT RIDGE   MOSUNNY   88  70  55 S13       29.92F HX  92
BLYTHEVILLE    MOSUNNY   90  71  53 S8        29.95F HX  96
$$

ARZ022-023-033-042-044-292000-
CENTRAL ARKANSAS

CITY           SKY/WX    TMP DP  RH WIND       PRES   REMARKS
LITTLE ROCK    LGT RAIN  88  70  55 SE14      29.93F HX  93
N LITTLE ROCK  PTSUNNY   90  72  55 S10G17    29.93F HX  98
JACKSONVILLE   MOSUNNY   85  77  78 S7        29.92F HX  96
SEARCY         MOSUNNY   91  73  55 MISG      29.94F HX  99
HOT SPRINGS    PTSUNNY   87  70  56 S12       29.93F HX  92
RUSSELLVILLE   PTSUNNY   89  72  56 VRB6      29.91F HX  96
CLINTON        PTSUNNY   81  75  83 NW7       29.93S HX  86
$$

ARZ036-292000-
EAST ARKANSAS

CITY           SKY/WX    TMP DP  RH WIND       PRES   REMARKS
WEST MEMPHIS   MOSUNNY   91  70  49 S9        29.94F HX  96
$$

ARZ050-053-066-070-073-292000-
SOUTHWEST ARKANSAS

CITY           SKY/WX    TMP DP  RH WIND       PRES   REMARKS
ARKADELPHIA    FAIR      92  73  53 S10       29.92F HX 100
CAMDEN         MOSUNNY   91  72  52 S7        29.92F HX  98
TEXARKANA      PTSUNNY   92  68  45 S12       29.91F HX  96
EL DORADO      MOSUNNY   90  71  53 S8        29.93F HX  96
DE QUEEN       CLOUDY    86  73  65 S8        29.90F HX  93
$$

ARZ056-057-069-292000-
SOUTHEAST ARKANSAS

CITY           SKY/WX    TMP DP  RH WIND       PRES   REMARKS
PINE BLUFF     SUNNY     91  70  49 S10       29.93F HX  96
STUTTGART      MOSUNNY   91  73  55 SE8       29.95F HX 100
MONTICELLO     PTSUNNY   89  70  53 S8        29.95F HX  94

$$




USA.gov is the U.S. government's official web portal to all federal, state and local government web resources and services.